Flag for Honduras Weather past 2 weeks in Tegucigalpa, Honduras

Now
84 °F

Scattered clouds.


Feels Like: 87 °F
Forecast: N/A
Wind: 7 mph from South

Location: Tegucigalpa Airport

Current Time: Aug 27, 2014 at 5:07:19 PM

Latest Report: Aug 27, 2014 at 4:00 PM


Visibility: N/A

Pressure: 29.95 "Hg

Humidity: 55%

Dew point: 66 °F

Location of TegucigalpaLocation

Historic Weather in Tegucigalpa — Graph

°F

Tegucigalpa temperature yesterday

Maximum temperature yesterday: 88 °F (at 3:00 PM)
Minimum temperature yesterday: 68 °F (at 12:00 AM)
Average temperature yesterday: 75 °F

Past Weeks' High & Low Weather Summary

 TemperatureHumidityPressure
High91 °F (Aug 23, 1:00 PM)100% (Aug 13, 4:00 AM)30.18 "Hg (Aug 13, 4:00 AM)
Low61 °F (Aug 13, 4:00 AM)17% (Aug 23, 5:00 PM)29.89 "Hg (Aug 25, 4:00 PM)
Average74 °F71%30.08 "Hg
* Reported Aug 12 4:00 PM — Aug 27 4:00 PM, Tegucigalpa, Weather by CustomWeather, © 2014

Note: Actual official high and low records may vary slightly from our data, if they occured in-between our weather recording intervals... More about our weather records

Advertising

Tegucigalpa weather history for previous 24 hours

 ConditionsComfort  
Time TempWeatherWind HumidityBarometerVisibility
4:00 PM
Aug 27
84 °FScattered clouds.7 mph55%29.95 "HgN/A
3:00 PM82 °FBroken clouds.6 mph51%29.95 "HgN/A
2:00 PM81 °FThunderstorms. Partly sunny.6 mph62%30.01 "HgN/A
1:00 PM88 °FPartly sunny.5 mph46%30.03 "HgN/A
12:00 PM84 °FPartly sunny.2 mph51%30.04 "HgN/A
11:00 AM82 °FPartly sunny.3 mph58%30.07 "HgN/A
10:00 AM82 °FScattered clouds.7 mph58%30.07 "HgN/A
9:00 AM77 °FScattered clouds.3 mph74%30.09 "HgN/A
8:00 AM75 °FScattered clouds.No wind83%30.07 "HgN/A
7:00 AM68 °FScattered clouds.No wind100%30.09 "HgN/A
6:00 AM68 °FBroken clouds.5 mph100%30.07 "HgN/A
5:00 AM68 °FPassing clouds.No wind100%30.07 "HgN/A
4:00 AM68 °FPassing clouds.5 mph100%30.07 "HgN/A
3:00 AM70 °FPassing clouds.No wind100%30.04 "HgN/A
2:00 AM70 °FPassing clouds.No wind100%30.07 "HgN/A
1:00 AM70 °FPassing clouds.No wind94%30.07 "HgN/A
12:00 AM70 °FPassing clouds.5 mph94%30.07 "HgN/A
11:00 PM
Aug 26
70 °FPassing clouds.5 mph100%30.09 "HgN/A
10:00 PM70 °FPassing clouds.5 mph100%30.09 "HgN/A
9:00 PM70 °FPassing clouds.7 mph94%30.07 "HgN/A
8:00 PM72 °FSprinkles. Passing clouds.5 mph88%30.04 "Hg4 mi
7:00 PM79 °FPassing clouds.7 mph61%30.01 "HgN/A
6:00 PM82 °FScattered clouds.9 mph45%29.95 "HgN/A
5:00 PM86 °FScattered clouds.9 mph43%29.95 "HgN/A
Weather by CustomWeather, © 2014

See weather overviewHow to use our weather pages